Content
SEND FEEDBACK

Daily
Averages
Monthly
Summary
Switzerland

PAYERNE, SWITZERLAND


Home > Europe > Switzerland
Elevation: 1463 feet     Latitude: 46 50N     Longitude: 006 55E

WEATHER
 
SELECT A DAY
Number of Records: 93,427;   Date Range: 12/15/98 - 11/26/14
 
SHARE

PRINT THIS DATA

[ ← Previous Day ]
WEATHER ALMANAC - FEBRUARY 6, 2013
[ Next Day → ]
[ °C ]   °F
Weather ElementAverageHighLow
Temperature26 °F28.4 °F (10:50 am)24.8 °F (12:50 am)
Dewpoint23.5 °F28.4 °F (3:50 pm)19.4 °F (6:20 am)
Humidity90.2 %100 % (3:50 pm)80 % (6:20 am)
Barometer29.47 in29.59 in (12:50 am)29.39 in (12:50 pm)
Wind Speed9.4 mph13.8 mph (2:50 am)
Wind Gust26.5 mph (9:50 am)
Weather ElementAverage
Visibility3.6 mi
Wind DirectionSSW (217.2 °)

Weather ElementTotal
Precipitation---
Heating Degree Days38.4 (Base 65)
Averaged from 47 records on February 6, 2013
WEATHER CONDITIONS BREAKOUT
WIND DIRECTION BREAKOUT
WEATHER BY HOUR - FEBRUARY 6, 2013
[ °C ]   °F
Local TimeTemperatureDewpointHumidityBarometerVisibilityWind DirectionWind SpeedGust SpeedPrecipitationEventsConditions
12:50 AM24.8 °F21.2 °F86 %29.59 in6.2 miWSW (250°)10.4 mphSnowLight Snow
1:20 AM24.8 °F21.2 °F86 %29.59 in6.2 miWSW (250°)11.5 mphMostly Cloudy
1:50 AM24.8 °F23.0 °F93 %29.56 in6.2 miWSW (240°)10.4 mphSnowLight Snow
2:20 AM24.8 °F23.0 °F93 %29.56 in6.2 miSW (230°)9.2 mphSnowLight Snow
2:50 AM24.8 °F23.0 °F93 %29.56 in6.2 miWSW (240°)13.8 mphSnowLight Snow
3:20 AM24.8 °F23.0 °F93 %29.56 in6.2 miSW (230°)13.8 mphSnowLight Snow
3:50 AM24.8 °F21.2 °F86 %29.53 in6.2 miWSW (240°)11.5 mphMostly Cloudy
4:20 AM24.8 °F21.2 °F86 %29.53 in6.2 miSW (230°)10.4 mphMostly Cloudy
4:50 AM24.8 °F21.2 °F86 %29.50 in6.2 miSW (220°)11.5 mphSnowLight Snow
5:20 AM24.8 °F21.2 °F86 %29.50 in6.2 miSW (220°)11.5 mphMostly Cloudy
5:50 AM24.8 °F21.2 °F86 %29.47 in6.2 miSW (220°)9.2 mphMostly Cloudy
6:20 AM24.8 °F19.4 °F80 %29.47 in6.2 miSSW (210°)10.4 mphMostly Cloudy
6:50 AM24.8 °F21.2 °F86 %29.44 in6.2 miSW (220°)10.4 mphScattered Clouds
7:20 AM24.8 °F21.2 °F86 %29.44 in6.2 miSW (220°)13.8 mph
7:50 AM24.8 °F23.0 °F93 %29.42 in6.2 miSW (220°)10.4 mphSnowLight Snow
8:20 AM24.8 °F21.2 °F86 %29.42 in6.2 miSW (220°)9.2 mphSnowLight Snow
8:50 AM24.8 °F21.2 °F86 %29.42 in4.3 miSW (230°)8.1 mphSnowLight Snow
9:20 AM26.6 °F23.0 °F86 %29.42 in3.1 miVariable11.5 mphSnowLight Snow
9:50 AM26.6 °F23.0 °F86 %29.42 in1.2 miSW (230°)13.8 mph26.5 mphSnowLight Snow
10:20 AM26.6 °F23.0 °F86 %29.42 in6.2 miSW (230°)13.8 mphSnowLight Snow
10:50 AM28.4 °F23.0 °F80 %29.42 in6.2 miSW (220°)11.5 mphOvercast
11:20 AM28.4 °F24.8 °F86 %29.42 in3.1 miSW (220°)10.4 mphSnowLight Snow Showers
11:50 AM28.4 °F26.6 °F93 %29.42 in0.8 miSW (230°)9.2 mphSnowSnow
12:20 PM28.4 °F26.6 °F93 %29.42 in0.9 miSW (230°)9.2 mphSnowSnow
12:50 PM28.4 °F26.6 °F93 %29.39 in0.9 miSW (220°)10.4 mphSnowSnow
1:20 PM28.4 °F26.6 °F93 %29.39 in0.9 miSW (230°)6.9 mphSnowSnow
1:50 PM28.4 °F26.6 °F93 %29.39 in0.9 miWSW (240°)10.4 mphSnowSnow
2:20 PM28.4 °F26.6 °F93 %29.39 in0.8 miSW (230°)9.2 mphSnowSnow
2:50 PM28.4 °F26.6 °F93 %29.39 inSW (230°)10.4 mphSnowSnow
3:20 PM28.4 °F26.6 °F93 %29.39 in0.6 miSW (230°)9.2 mphSnowSnow
3:50 PM28.4 °F28.4 °F100 %29.39 in0.4 miSW (230°)9.2 mphSnowSnow
4:20 PM28.4 °F26.6 °F93 %29.42 in0.6 miWSW (250°)10.4 mphSnowSnow
4:50 PM28.4 °F24.8 °F86 %29.42 in4.3 miWNW (300°)13.8 mphSnowLight Snow Showers
5:20 PM26.6 °F24.8 °F93 %29.42 in5.0 miWest (260°)5.8 mphSnowLight Snow Showers
5:50 PM26.6 °F24.8 °F93 %29.42 in0.9 miSW (230°)5.8 mphSnowSnow
6:20 PM24.8 °F23.0 °F93 %29.44 in0.2 miWest (270°)6.9 mphSnowHeavy Snow
6:50 PM24.8 °F23.0 °F93 %29.47 in5.6 miWSW (240°)11.5 mphSnowLight Snow
7:20 PM24.8 °F23.0 °F93 %29.47 in0.6 miWSW (250°)5.8 mphSnowSnow
7:50 PM24.8 °F23.0 °F93 %29.47 inWSW (240°)8.1 mphSnowLight Snow
8:20 PM24.8 °F23.0 °F93 %29.50 in0.2 miVariable8.1 mphSnowHeavy Snow
8:50 PM24.8 °F23.0 °F93 %29.50 in0.4 miWSW (250°)6.9 mphSnowSnow
9:20 PM24.8 °F23.0 °F93 %29.53 in0.8 miWest (270°)5.8 mphSnowSnow
9:50 PM24.8 °F23.0 °F93 %29.53 in1.5 miWest (260°)6.9 mphSnowLight Snow
10:20 PM24.8 °F23.0 °F93 %29.56 in1.5 miVariable4.6 mphSnowLight Snow
10:50 PM24.8 °F23.0 °F93 %29.56 in3.1 miWest (280°)4.6 mphSnowLight Snow
11:20 PM24.8 °F23.0 °F93 %29.56 in4.3 miVariable3.5 mphSnowLight Snow
11:50 PM24.8 °F23.0 °F93 %29.59 inWSW (250°)4.6 mphSnowLight Snow
Hourly data recorded from LSGC, located miles away from Payerne, Switzerland







STORIES FROM OUR PARTNERS